Location: Innerarity Island Observatory
(30.3139°N, 87.4867°W)
Time: 13:00:38
(UTC-05:00)

OPAL - Visible Passes

Search period start: 26 July 2016 00:00
Search period end: 05 August 2016 00:00
Orbit: 743 x 796 km, 100.2° (Epoch: 25 July)

Date Brightness Start Highest point End Pass type
(mag) Time Alt. Az. Time Alt. Az. Time Alt. Az.
26 Jul 9.2 02:24:48 10° NNE 02:27:12 29° NNE 02:27:12 29° NNE visible
27 Jul 10.0 01:50:01 10° NE 01:51:13 16° NE 01:51:13 16° NE visible
27 Jul 9.2 03:28:58 10° NNW 03:31:30 21° NW 03:31:30 21° NW visible
28 Jul 8.9 02:52:50 10° N 02:55:31 31° N 02:55:31 31° N visible
29 Jul 9.5 02:17:28 10° NNE 02:19:32 24° NE 02:19:32 24° NE visible
29 Jul 9.6 03:58:26 10° NW 03:59:49 13° NW 03:59:49 13° NW visible
30 Jul 10.2 01:42:59 10° NE 01:43:32 12° NE 01:43:32 12° NE visible
30 Jul 9.1 03:21:16 10° N 03:23:49 24° NNW 03:23:49 24° NNW visible
31 Jul 9.1 02:45:22 10° N 02:47:50 30° N 02:47:50 30° N visible
01 Aug 9.7 02:10:11 10° NNE 02:11:50 20° NE 02:11:50 20° NE visible
01 Aug 9.5 03:50:18 10° NNW 03:52:08 15° NW 03:52:08 15° NW visible
02 Aug 9.1 03:13:38 10° N 03:16:08 26° NNW 03:16:08 26° NNW visible
03 Aug 9.3 02:37:56 10° NNE 02:40:08 27° NNE 02:40:08 27° NNE visible
04 Aug 10.0 02:02:58 10° NE 02:04:09 16° NE 02:04:09 16° NE visible
04 Aug 9.4 03:42:23 10° NNW 03:44:26 18° NW 03:44:26 18° NW visible
